contact:dominique.lefevre@mio.osupytheas.fr, maurice.libes@osupytheas.fr, didier.mallarino@osupytheas.fr
Project:EMSO http://www.emso-fr.org/EMSO-France
Depth: 2436.0 m
Title:EMSO Ligure Ouest : Data MII capteur MICROCAT
DateTime_Computer,Latitude,Longitude,Temperature,Conductivity,Pressure,DateTime_Instrument
DateTime_Computer,Latitude,Longitude,degC,S m-1,dbar,DateTime_Instrument
2022-02-04T00:01:57Z,42.805,6.029,13.3001,4.60030,2470.063,2022-2-04T02:03:29Z
2022-02-04T00:05:00Z,42.805,6.029,13.2999,4.60038,2470.017,2022-2-04T02:06:33Z
2022-02-04T00:08:03Z,42.805,6.029,13.3001,4.60032,2469.979,2022-2-04T02:09:36Z
2022-02-04T00:11:06Z,42.805,6.029,13.2998,4.60027,2470.063,2022-2-04T02:12:39Z
2022-02-04T00:14:09Z,42.805,6.029,13.3001,4.60036,2470.03,2022-2-04T02:15:42Z
2022-02-04T00:17:12Z,42.805,6.029,13.2999,4.60041,2470.077,2022-2-04T02:18:45Z
2022-02-04T00:20:15Z,42.805,6.029,13.3001,4.60034,2470.04,2022-2-04T02:21:48Z
2022-02-04T00:23:19Z,42.805,6.029,13.2997,4.60029,2470.03,2022-2-04T02:24:51Z
2022-02-04T00:26:22Z,42.805,6.029,13.3000,4.60038,2470.063,2022-2-04T02:27:54Z
2022-02-04T00:29:25Z,42.805,6.029,13.2998,4.60029,2470.04,2022-2-04T02:30:57Z
2022-02-04T00:32:28Z,42.805,6.029,13.3000,4.60031,2470.017,2022-2-04T02:34:01Z
2022-02-04T00:35:31Z,42.805,6.029,13.3003,4.60029,2470.063,2022-2-04T02:37:04Z
2022-02-04T00:38:34Z,42.805,6.029,13.3002,4.60032,2470.017,2022-2-04T02:40:07Z
2022-02-04T00:41:37Z,42.805,6.029,13.3000,4.60044,2470.017,2022-2-04T02:43:10Z
2022-02-04T00:44:40Z,42.805,6.029,13.3000,4.60031,2470.017,2022-2-04T02:46:13Z
2022-02-04T00:47:44Z,42.805,6.029,13.3004,4.60029,2470.03,2022-2-04T02:49:16Z
2022-02-04T00:50:47Z,42.805,6.029,13.3004,4.60029,2470.053,2022-2-04T02:52:19Z
2022-02-04T00:53:50Z,42.805,6.029,13.3003,4.60044,2470.03,2022-2-04T02:55:22Z
2022-02-04T00:56:53Z,42.805,6.029,13.3000,4.60031,2470.04,2022-2-04T02:58:26Z
2022-02-04T00:59:56Z,42.805,6.029,13.3000,4.60032,2470.017,2022-2-04T03:01:29Z
2022-02-04T01:02:59Z,42.805,6.029,13.2995,4.60028,2470.053,2022-2-04T03:04:32Z
2022-02-04T01:06:02Z,42.805,6.029,13.2999,4.60032,2470.017,2022-2-04T03:07:35Z
2022-02-04T01:09:05Z,42.805,6.029,13.2999,4.60034,2470.03,2022-2-04T03:10:38Z
2022-02-04T01:12:08Z,42.805,6.029,13.3002,4.60034,2469.993,2022-2-04T03:13:41Z
2022-02-04T01:15:12Z,42.805,6.029,13.2999,4.60035,2470.04,2022-2-04T03:16:44Z
2022-02-04T01:18:15Z,42.805,6.029,13.2998,4.60028,2470.017,2022-2-04T03:19:47Z
2022-02-04T01:21:18Z,42.805,6.029,13.3003,4.60033,2470.04,2022-2-04T03:22:50Z
2022-02-04T01:24:21Z,42.805,6.029,13.3001,4.60029,2470.087,2022-2-04T03:25:54Z
2022-02-04T01:27:24Z,42.805,6.029,13.3004,4.60034,2470.053,2022-2-04T03:28:57Z
2022-02-04T01:30:27Z,42.805,6.029,13.3002,4.60031,2470.053,2022-2-04T03:32:00Z
2022-02-04T01:33:30Z,42.805,6.029,13.3007,4.60041,2469.993,2022-2-04T03:35:03Z
2022-02-04T01:36:33Z,42.805,6.029,13.2997,4.60029,2470.007,2022-2-04T03:38:06Z
2022-02-04T01:39:37Z,42.805,6.029,13.3001,4.60026,2470.04,2022-2-04T03:41:09Z
2022-02-04T01:42:40Z,42.805,6.029,13.2997,4.60037,2470.017,2022-2-04T03:44:12Z
2022-02-04T01:45:43Z,42.805,6.029,13.3007,4.60034,2469.993,2022-2-04T03:47:15Z
2022-02-04T01:48:46Z,42.805,6.029,13.2996,4.60028,2470.03,2022-2-04T03:50:18Z
2022-02-04T01:51:49Z,42.805,6.029,13.2999,4.60031,2470.017,2022-2-04T03:53:22Z
2022-02-04T01:54:52Z,42.805,6.029,13.2999,4.60026,2469.993,2022-2-04T03:56:25Z
2022-02-04T01:57:55Z,42.805,6.029,13.2997,4.60024,2469.993,2022-2-04T03:59:28Z
2022-02-04T02:00:58Z,42.805,6.029,13.2993,4.60029,2469.993,2022-2-04T04:02:31Z
2022-02-04T02:04:01Z,42.805,6.029,13.2999,4.60026,2470.03,2022-2-04T04:05:34Z
2022-02-04T02:07:05Z,42.805,6.029,13.2997,4.60025,2470.017,2022-2-04T04:08:37Z
2022-02-04T02:10:08Z,42.805,6.029,13.3001,4.60031,2469.993,2022-2-04T04:11:40Z
2022-02-04T02:13:11Z,42.805,6.029,13.2996,4.60027,2469.96,2022-2-04T04:14:43Z
2022-02-04T02:16:14Z,42.805,6.029,13.2997,4.60028,2469.984,2022-2-04T04:17:47Z
2022-02-04T02:19:17Z,42.805,6.029,13.2999,4.60027,2469.993,2022-2-04T04:20:50Z
2022-02-04T02:22:20Z,42.805,6.029,13.3001,4.60027,2469.993,2022-2-04T04:23:53Z
2022-02-04T02:25:23Z,42.805,6.029,13.3000,4.60026,2469.947,2022-2-04T04:26:56Z
2022-02-04T02:28:26Z,42.805,6.029,13.2994,4.60024,2470.007,2022-2-04T04:29:59Z
2022-02-04T02:31:30Z,42.805,6.029,13.3001,4.60031,2469.97,2022-2-04T04:33:02Z
2022-02-04T02:34:33Z,42.805,6.029,13.2997,4.60030,2469.97,2022-2-04T04:36:05Z
2022-02-04T02:37:36Z,42.805,6.029,13.2998,4.60029,2469.923,2022-2-04T04:39:08Z
2022-02-04T02:40:39Z,42.805,6.029,13.3002,4.60031,2469.947,2022-2-04T04:42:12Z
2022-02-04T02:43:42Z,42.805,6.029,13.2996,4.60024,2469.97,2022-2-04T04:45:15Z
2022-02-04T02:46:45Z,42.805,6.029,13.2999,4.60027,2469.947,2022-2-04T04:48:18Z
2022-02-04T02:49:48Z,42.805,6.029,13.2997,4.60029,2469.984,2022-2-04T04:51:21Z
2022-02-04T02:52:51Z,42.805,6.029,13.2997,4.60030,2469.947,2022-2-04T04:54:24Z
2022-02-04T02:55:55Z,42.805,6.029,13.2996,4.60028,2469.96,2022-2-04T04:57:27Z
2022-02-04T02:58:58Z,42.805,6.029,13.2993,4.60032,2469.947,2022-2-04T05:00:30Z
2022-02-04T03:02:01Z,42.805,6.029,13.2998,4.60029,2469.947,2022-2-04T05:03:33Z
2022-02-04T03:05:04Z,42.805,6.029,13.2998,4.60029,2469.947,2022-2-04T05:06:37Z
2022-02-04T03:08:07Z,42.805,6.029,13.3000,4.60031,2469.947,2022-2-04T05:09:40Z
2022-02-04T03:11:10Z,42.805,6.029,13.3003,4.60036,2469.923,2022-2-04T05:12:43Z
2022-02-04T03:14:13Z,42.805,6.029,13.2996,4.60033,2469.937,2022-2-04T05:15:46Z
2022-02-04T03:17:16Z,42.805,6.029,13.3001,4.60033,2469.9,2022-2-04T05:18:49Z
2022-02-04T03:20:19Z,42.805,6.029,13.2998,4.60033,2469.937,2022-2-04T05:21:52Z
2022-02-04T03:23:23Z,42.805,6.029,13.2998,4.60034,2469.923,2022-2-04T05:24:55Z
2022-02-04T03:26:26Z,42.805,6.029,13.3005,4.60029,2469.947,2022-2-04T05:27:58Z
2022-02-04T03:29:29Z,42.805,6.029,13.3001,4.60040,2469.923,2022-2-04T05:31:01Z
2022-02-04T03:32:32Z,42.805,6.029,13.3000,4.60029,2469.923,2022-2-04T05:34:05Z
2022-02-04T03:35:35Z,42.805,6.029,13.2996,4.60033,2469.937,2022-2-04T05:37:08Z
2022-02-04T03:38:38Z,42.805,6.029,13.3003,4.60033,2469.984,2022-2-04T05:40:11Z
2022-02-04T03:41:41Z,42.805,6.029,13.2996,4.60034,2469.937,2022-2-04T05:43:14Z
2022-02-04T03:44:44Z,42.805,6.029,13.2996,4.60031,2469.9,2022-2-04T05:46:17Z
2022-02-04T03:47:48Z,42.805,6.029,13.2998,4.60028,2469.923,2022-2-04T05:49:20Z
2022-02-04T03:50:51Z,42.805,6.029,13.2998,4.60029,2469.9,2022-2-04T05:52:23Z
2022-02-04T03:53:54Z,42.805,6.029,13.2995,4.60034,2469.923,2022-2-04T05:55:26Z
2022-02-04T03:56:57Z,42.805,6.029,13.2996,4.60028,2469.9,2022-2-04T05:58:30Z
2022-02-04T04:00:00Z,42.805,6.029,13.2998,4.60033,2469.9,2022-2-04T06:01:33Z
2022-02-04T04:03:03Z,42.805,6.029,13.3001,4.60031,2469.937,2022-2-04T06:04:36Z
2022-02-04T04:06:06Z,42.805,6.029,13.3002,4.60037,2469.9,2022-2-04T06:07:39Z
2022-02-04T04:09:09Z,42.805,6.029,13.2995,4.60033,2469.9,2022-2-04T06:10:42Z
2022-02-04T04:12:12Z,42.805,6.029,13.3005,4.60033,2469.89,2022-2-04T06:13:45Z
2022-02-04T04:15:16Z,42.805,6.029,13.3002,4.60042,2469.947,2022-2-04T06:16:48Z
2022-02-04T04:18:19Z,42.805,6.029,13.2996,4.60029,2469.876,2022-2-04T06:19:51Z
2022-02-04T04:21:22Z,42.805,6.029,13.3001,4.60033,2469.923,2022-2-04T06:22:54Z
2022-02-04T04:24:25Z,42.805,6.029,13.3001,4.60035,2469.9,2022-2-04T06:25:58Z
2022-02-04T04:27:28Z,42.805,6.029,13.2995,4.60036,2469.876,2022-2-04T06:29:01Z
2022-02-04T04:30:31Z,42.805,6.029,13.3002,4.60029,2469.923,2022-2-04T06:32:04Z
2022-02-04T04:33:34Z,42.805,6.029,13.2998,4.60044,2469.96,2022-2-04T06:35:07Z
2022-02-04T04:36:37Z,42.805,6.029,13.3004,4.60033,2469.923,2022-2-04T06:38:10Z
2022-02-04T04:39:40Z,42.805,6.029,13.3000,4.60032,2469.984,2022-2-04T06:41:13Z
2022-02-04T04:42:44Z,42.805,6.029,13.2997,4.60031,2469.853,2022-2-04T06:44:16Z
2022-02-04T04:45:47Z,42.805,6.029,13.3000,4.60046,2469.853,2022-2-04T06:47:19Z
2022-02-04T04:48:50Z,42.805,6.029,13.3003,4.60044,2469.914,2022-2-04T06:50:23Z
2022-02-04T04:51:53Z,42.805,6.029,13.3003,4.60035,2469.876,2022-2-04T06:53:26Z
2022-02-04T04:54:56Z,42.805,6.029,13.3003,4.60035,2469.876,2022-2-04T06:56:29Z
2022-02-04T04:57:59Z,42.805,6.029,13.3004,4.60031,2469.9,2022-2-04T06:59:32Z
2022-02-04T05:01:02Z,42.805,6.029,13.3000,4.60032,2469.914,2022-2-04T07:02:35Z
2022-02-04T05:04:05Z,42.805,6.029,13.3002,4.60036,2469.923,2022-2-04T07:05:38Z
2022-02-04T05:07:09Z,42.805,6.029,13.2998,4.60033,2469.97,2022-2-04T07:08:41Z
2022-02-04T05:10:12Z,42.805,6.029,13.2997,4.60033,2469.937,2022-2-04T07:11:44Z
2022-02-04T05:13:15Z,42.805,6.029,13.3001,4.60030,2469.9,2022-2-04T07:14:47Z
2022-02-04T05:16:18Z,42.805,6.029,13.3000,4.60033,2469.9,2022-2-04T07:17:51Z
2022-02-04T05:19:21Z,42.805,6.029,13.3004,4.60037,2469.9,2022-2-04T07:20:54Z
2022-02-04T05:22:24Z,42.805,6.029,13.3005,4.60032,2469.9,2022-2-04T07:23:57Z
2022-02-04T05:25:27Z,42.805,6.029,13.3000,4.60037,2469.914,2022-2-04T07:27:00Z
2022-02-04T05:28:30Z,42.805,6.029,13.3001,4.60031,2469.9,2022-2-04T07:30:03Z
2022-02-04T05:31:33Z,42.805,6.029,13.3001,4.60030,2469.947,2022-2-04T07:33:06Z
2022-02-04T05:34:37Z,42.805,6.029,13.2999,4.60029,2469.937,2022-2-04T07:36:09Z
2022-02-04T05:37:40Z,42.805,6.029,13.3001,4.60032,2469.947,2022-2-04T07:39:12Z
2022-02-04T05:40:43Z,42.805,6.029,13.2996,4.60031,2469.947,2022-2-04T07:42:16Z
2022-02-04T05:43:46Z,42.805,6.029,13.3000,4.60031,2469.937,2022-2-04T07:45:19Z
2022-02-04T05:46:49Z,42.805,6.029,13.3001,4.60029,2469.984,2022-2-04T07:48:22Z
2022-02-04T05:49:52Z,42.805,6.029,13.3003,4.60031,2469.993,2022-2-04T07:51:25Z
2022-02-04T05:52:55Z,42.805,6.029,13.2996,4.60029,2469.984,2022-2-04T07:54:28Z
2022-02-04T05:55:58Z,42.805,6.029,13.3000,4.60028,2469.984,2022-2-04T07:57:31Z
2022-02-04T05:59:02Z,42.805,6.029,13.3002,4.60032,2470.124,2022-2-04T08:00:34Z
2022-02-04T06:02:05Z,42.805,6.029,13.3000,4.60039,2469.947,2022-2-04T08:03:37Z
2022-02-04T06:05:08Z,42.805,6.029,13.3000,4.60031,2470.053,2022-2-04T08:06:40Z
2022-02-04T06:08:11Z,42.805,6.029,13.3005,4.60033,2469.96,2022-2-04T08:09:44Z
2022-02-04T06:11:14Z,42.805,6.029,13.3003,4.60031,2469.97,2022-2-04T08:12:47Z
2022-02-04T06:14:17Z,42.805,6.029,13.3005,4.60032,2470.11,2022-2-04T08:15:50Z
2022-02-04T06:17:20Z,42.805,6.029,13.3002,4.60034,2470.077,2022-2-04T08:18:53Z
2022-02-04T06:20:23Z,42.805,6.029,13.2996,4.60030,2469.993,2022-2-04T08:21:56Z
2022-02-04T06:23:26Z,42.805,6.029,13.3003,4.60029,2470.04,2022-2-04T08:24:59Z
2022-02-04T06:26:30Z,42.805,6.029,13.3004,4.60033,2470.063,2022-2-04T08:28:02Z
2022-02-04T06:29:33Z,42.805,6.029,13.3005,4.60035,2470.03,2022-2-04T08:31:05Z
2022-02-04T06:32:36Z,42.805,6.029,13.3000,4.60030,2470.04,2022-2-04T08:34:09Z
2022-02-04T06:35:39Z,42.805,6.029,13.2996,4.60029,2470.017,2022-2-04T08:37:12Z
2022-02-04T06:38:42Z,42.805,6.029,13.3001,4.60027,2470.017,2022-2-04T08:40:15Z
2022-02-04T06:41:45Z,42.805,6.029,13.2999,4.60031,2470.017,2022-2-04T08:43:18Z
2022-02-04T06:44:48Z,42.805,6.029,13.3007,4.60036,2470.03,2022-2-04T08:46:21Z
2022-02-04T06:47:51Z,42.805,6.029,13.2998,4.60033,2470.053,2022-2-04T08:49:24Z
2022-02-04T06:50:55Z,42.805,6.029,13.3007,4.60040,2469.993,2022-2-04T08:52:27Z
2022-02-04T06:53:58Z,42.805,6.029,13.3004,4.60041,2470.063,2022-2-04T08:55:30Z
2022-02-04T06:57:01Z,42.805,6.029,13.3000,4.60031,2470.04,2022-2-04T08:58:33Z
2022-02-04T07:00:04Z,42.805,6.029,13.3001,4.60035,2470.053,2022-2-04T09:01:37Z
2022-02-04T07:03:07Z,42.805,6.029,13.3008,4.60035,2470.063,2022-2-04T09:04:40Z
2022-02-04T07:06:10Z,42.805,6.029,13.2999,4.60030,2470.017,2022-2-04T09:07:43Z
2022-02-04T07:09:13Z,42.805,6.029,13.2998,4.60031,2470.063,2022-2-04T09:10:46Z
2022-02-04T07:12:16Z,42.805,6.029,13.3005,4.60032,2470.077,2022-2-04T09:13:49Z
2022-02-04T07:15:19Z,42.805,6.029,13.3003,4.60033,2470.049,2022-2-04T09:16:52Z
2022-02-04T07:18:23Z,42.805,6.029,13.3002,4.60033,2470.11,2022-2-04T09:19:55Z
2022-02-04T07:21:26Z,42.805,6.029,13.3001,4.60036,2470.087,2022-2-04T09:22:58Z
2022-02-04T07:24:29Z,42.805,6.029,13.3000,4.60030,2470.1,2022-2-04T09:26:02Z
2022-02-04T07:27:32Z,42.805,6.029,13.3001,4.60033,2470.063,2022-2-04T09:29:05Z
2022-02-04T07:30:35Z,42.805,6.029,13.3003,4.60038,2470.11,2022-2-04T09:32:08Z
2022-02-04T07:33:38Z,42.805,6.029,13.3004,4.60033,2470.124,2022-2-04T09:35:11Z
2022-02-04T07:36:41Z,42.805,6.029,13.2997,4.60031,2470.087,2022-2-04T09:38:14Z
2022-02-04T07:39:44Z,42.805,6.029,13.2998,4.60030,2470.11,2022-2-04T09:41:17Z
2022-02-04T07:42:48Z,42.805,6.029,13.3000,4.60033,2470.11,2022-2-04T09:44:20Z
2022-02-04T07:45:51Z,42.805,6.029,13.3001,4.60031,2470.124,2022-2-04T09:47:23Z
2022-02-04T07:48:54Z,42.805,6.029,13.3001,4.60029,2470.124,2022-2-04T09:50:26Z
2022-02-04T07:51:57Z,42.805,6.029,13.2999,4.60030,2470.11,2022-2-04T09:53:30Z
2022-02-04T07:55:00Z,42.805,6.029,13.3002,4.60034,2470.133,2022-2-04T09:56:33Z
2022-02-04T07:58:03Z,42.805,6.029,13.3000,4.60036,2470.147,2022-2-04T09:59:36Z
2022-02-04T08:01:06Z,42.805,6.029,13.3001,4.60032,2470.124,2022-2-04T10:02:39Z
2022-02-04T08:04:09Z,42.805,6.029,13.3005,4.60033,2470.11,2022-2-04T10:05:42Z
2022-02-04T08:07:12Z,42.805,6.029,13.2997,4.60032,2470.147,2022-2-04T10:08:45Z
2022-02-04T08:10:16Z,42.805,6.029,13.3001,4.60034,2470.133,2022-2-04T10:11:48Z
2022-02-04T08:13:19Z,42.805,6.029,13.3000,4.60034,2470.133,2022-2-04T10:14:51Z
2022-02-04T08:16:22Z,42.805,6.029,13.3001,4.60031,2470.133,2022-2-04T10:17:55Z
2022-02-04T08:19:25Z,42.805,6.029,13.2999,4.60031,2470.133,2022-2-04T10:20:58Z
2022-02-04T08:22:28Z,42.805,6.029,13.3006,4.60031,2470.133,2022-2-04T10:24:01Z
2022-02-04T08:25:31Z,42.805,6.029,13.3006,4.60035,2470.11,2022-2-04T10:27:04Z
2022-02-04T08:28:34Z,42.805,6.029,13.3001,4.60031,2470.147,2022-2-04T10:30:07Z
2022-02-04T08:31:37Z,42.805,6.029,13.3002,4.60036,2470.133,2022-2-04T10:33:10Z
2022-02-04T08:34:41Z,42.805,6.029,13.3000,4.60030,2470.171,2022-2-04T10:36:13Z
2022-02-04T08:37:44Z,42.805,6.029,13.3002,4.60032,2470.133,2022-2-04T10:39:16Z
2022-02-04T08:40:47Z,42.805,6.029,13.2998,4.60039,2470.133,2022-2-04T10:42:19Z
2022-02-04T08:43:50Z,42.805,6.029,13.3001,4.60034,2470.124,2022-2-04T10:45:23Z
2022-02-04T08:46:53Z,42.805,6.029,13.3003,4.60033,2470.156,2022-2-04T10:48:26Z
2022-02-04T08:49:56Z,42.805,6.029,13.3005,4.60041,2470.133,2022-2-04T10:51:29Z
2022-02-04T08:52:59Z,42.805,6.029,13.3001,4.60033,2470.156,2022-2-04T10:54:32Z
2022-02-04T08:56:02Z,42.805,6.029,13.3000,4.60034,2470.133,2022-2-04T10:57:35Z
2022-02-04T08:59:06Z,42.805,6.029,13.2998,4.60031,2470.147,2022-2-04T11:00:38Z
2022-02-04T09:02:09Z,42.805,6.029,13.3005,4.60031,2470.18,2022-2-04T11:03:41Z
2022-02-04T09:05:12Z,42.805,6.029,13.3005,4.60032,2470.156,2022-2-04T11:06:44Z
2022-02-04T09:08:15Z,42.805,6.029,13.2999,4.60033,2470.194,2022-2-04T11:09:48Z
2022-02-04T09:11:18Z,42.805,6.029,13.3003,4.60034,2470.156,2022-2-04T11:12:51Z
2022-02-04T09:14:21Z,42.805,6.029,13.3006,4.60033,2470.171,2022-2-04T11:15:54Z
2022-02-04T09:17:24Z,42.805,6.029,13.2998,4.60033,2470.133,2022-2-04T11:18:57Z
2022-02-04T09:20:27Z,42.805,6.029,13.2998,4.60030,2470.156,2022-2-04T11:22:00Z
2022-02-04T09:23:30Z,42.805,6.029,13.3003,4.60031,2470.156,2022-2-04T11:25:03Z
2022-02-04T09:26:34Z,42.805,6.029,13.2997,4.60031,2470.171,2022-2-04T11:28:06Z
2022-02-04T09:29:37Z,42.805,6.029,13.3002,4.60032,2470.156,2022-2-04T11:31:09Z
2022-02-04T09:32:40Z,42.805,6.029,13.3000,4.60039,2470.171,2022-2-04T11:34:12Z
2022-02-04T09:35:43Z,42.805,6.029,13.3002,4.60031,2470.133,2022-2-04T11:37:16Z
2022-02-04T09:38:46Z,42.805,6.029,13.3001,4.60029,2470.156,2022-2-04T11:40:19Z
2022-02-04T09:41:49Z,42.805,6.029,13.3000,4.60036,2470.147,2022-2-04T11:43:22Z
2022-02-04T09:44:52Z,42.805,6.029,13.3005,4.60035,2470.156,2022-2-04T11:46:25Z
2022-02-04T09:47:55Z,42.805,6.029,13.3001,4.60031,2470.203,2022-2-04T11:49:28Z
2022-02-04T09:50:59Z,42.805,6.029,13.2998,4.60029,2470.171,2022-2-04T11:52:31Z
2022-02-04T09:54:02Z,42.805,6.029,13.2999,4.60029,2470.171,2022-2-04T11:55:34Z
2022-02-04T09:57:05Z,42.805,6.029,13.3000,4.60031,2470.156,2022-2-04T11:58:37Z
2022-02-04T10:00:08Z,42.805,6.029,13.3002,4.60031,2470.171,2022-2-04T12:01:41Z
2022-02-04T10:03:11Z,42.805,6.029,13.2999,4.60030,2470.156,2022-2-04T12:04:44Z
2022-02-04T10:06:14Z,42.805,6.029,13.3005,4.60031,2470.133,2022-2-04T12:07:47Z
2022-02-04T10:09:17Z,42.805,6.029,13.3000,4.60032,2470.18,2022-2-04T12:10:50Z
2022-02-04T10:12:20Z,42.805,6.029,13.3000,4.60029,2470.133,2022-2-04T12:13:53Z
2022-02-04T10:15:24Z,42.805,6.029,13.3000,4.60030,2470.194,2022-2-04T12:16:56Z
2022-02-04T10:18:27Z,42.805,6.029,13.3002,4.60028,2470.147,2022-2-04T12:19:59Z
2022-02-04T10:21:30Z,42.805,6.029,13.2999,4.60029,2470.133,2022-2-04T12:23:02Z
2022-02-04T10:24:33Z,42.805,6.029,13.2996,4.60029,2470.133,2022-2-04T12:26:06Z
2022-02-04T10:27:36Z,42.805,6.029,13.3000,4.60028,2470.156,2022-2-04T12:29:09Z
2022-02-04T10:30:39Z,42.805,6.029,13.3004,4.60031,2470.133,2022-2-04T12:32:12Z
2022-02-04T10:33:42Z,42.805,6.029,13.2998,4.60029,2470.077,2022-2-04T12:35:15Z
2022-02-04T10:36:45Z,42.805,6.029,13.3000,4.60032,2470.11,2022-2-04T12:38:18Z
2022-02-04T10:39:49Z,42.805,6.029,13.2998,4.60031,2470.124,2022-2-04T12:41:21Z
2022-02-04T10:42:52Z,42.805,6.029,13.3003,4.60031,2470.087,2022-2-04T12:44:24Z
2022-02-04T10:45:55Z,42.805,6.029,13.3000,4.60028,2470.1,2022-2-04T12:47:27Z
2022-02-04T10:48:58Z,42.805,6.029,13.2999,4.60029,2470.087,2022-2-04T12:50:31Z
2022-02-04T10:52:01Z,42.805,6.029,13.3004,4.60028,2470.04,2022-2-04T12:53:34Z
2022-02-04T10:55:04Z,42.805,6.029,13.3002,4.60031,2470.063,2022-2-04T12:56:37Z
2022-02-04T10:58:07Z,42.805,6.029,13.2999,4.60028,2470.087,2022-2-04T12:59:40Z
2022-02-04T11:01:10Z,42.805,6.029,13.3000,4.60027,2470.087,2022-2-04T13:02:43Z
2022-02-04T11:04:14Z,42.805,6.029,13.2998,4.60029,2470.1,2022-2-04T13:05:46Z
2022-02-04T11:07:17Z,42.805,6.029,13.2998,4.60029,2470.087,2022-2-04T13:08:49Z
2022-02-04T11:10:20Z,42.805,6.029,13.2999,4.60027,2470.017,2022-2-04T13:11:52Z
2022-02-04T11:13:23Z,42.805,6.029,13.3001,4.60029,2470.077,2022-2-04T13:14:56Z
2022-02-04T11:16:26Z,42.805,6.029,13.2997,4.60029,2470.03,2022-2-04T13:17:59Z
2022-02-04T11:19:29Z,42.805,6.029,13.3002,4.60031,2470.017,2022-2-04T13:21:02Z
2022-02-04T11:22:32Z,42.805,6.029,13.2998,4.60028,2470.04,2022-2-04T13:24:05Z
2022-02-04T11:25:35Z,42.805,6.029,13.2994,4.60028,2470.017,2022-2-04T13:27:08Z
2022-02-04T11:28:39Z,42.805,6.029,13.3001,4.60029,2470.03,2022-2-04T13:30:11Z
2022-02-04T11:31:42Z,42.805,6.029,13.2997,4.60028,2470.017,2022-2-04T13:33:14Z
2022-02-04T11:34:45Z,42.805,6.029,13.3000,4.60032,2470.017,2022-2-04T13:36:17Z
2022-02-04T11:37:48Z,42.805,6.029,13.2998,4.60027,2470.017,2022-2-04T13:39:21Z
2022-02-04T11:40:51Z,42.805,6.029,13.2999,4.60031,2470.007,2022-2-04T13:42:24Z
2022-02-04T11:43:54Z,42.805,6.029,13.3000,4.60030,2469.97,2022-2-04T13:45:27Z
2022-02-04T11:46:57Z,42.805,6.029,13.2998,4.60027,2469.993,2022-2-04T13:48:30Z
2022-02-04T11:50:00Z,42.805,6.029,13.3000,4.60029,2469.96,2022-2-04T13:51:33Z
2022-02-04T11:53:04Z,42.805,6.029,13.3003,4.60029,2469.984,2022-2-04T13:54:36Z
2022-02-04T11:56:07Z,42.805,6.029,13.3001,4.60029,2469.984,2022-2-04T13:57:39Z
2022-02-04T11:59:10Z,42.805,6.029,13.2998,4.60029,2469.923,2022-2-04T14:00:42Z
2022-02-04T12:02:13Z,42.805,6.029,13.3001,4.60029,2470.017,2022-2-04T14:03:46Z
2022-02-04T12:05:16Z,42.805,6.029,13.3004,4.60029,2469.96,2022-2-04T14:06:49Z
2022-02-04T12:08:19Z,42.805,6.029,13.2998,4.60032,2469.937,2022-2-04T14:09:52Z
2022-02-04T12:11:22Z,42.805,6.029,13.3000,4.60037,2469.923,2022-2-04T14:12:55Z
2022-02-04T12:14:25Z,42.805,6.029,13.2998,4.60026,2469.923,2022-2-04T14:15:58Z
2022-02-04T12:17:28Z,42.805,6.029,13.3000,4.60033,2469.9,2022-2-04T14:19:01Z
2022-02-04T12:20:32Z,42.805,6.029,13.3000,4.60031,2469.9,2022-2-04T14:22:04Z
2022-02-04T12:23:35Z,42.805,6.029,13.3003,4.60030,2469.876,2022-2-04T14:25:07Z
2022-02-04T12:26:38Z,42.805,6.029,13.3001,4.60028,2469.923,2022-2-04T14:28:10Z
2022-02-04T12:29:41Z,42.805,6.029,13.3001,4.60029,2469.9,2022-2-04T14:31:14Z
2022-02-04T12:32:44Z,42.805,6.029,13.3001,4.60028,2469.89,2022-2-04T14:34:17Z
2022-02-04T12:35:47Z,42.805,6.029,13.3000,4.60028,2469.89,2022-2-04T14:37:20Z
2022-02-04T12:38:50Z,42.805,6.029,13.3001,4.60027,2469.876,2022-2-04T14:40:23Z
2022-02-04T12:41:53Z,42.805,6.029,13.2998,4.60028,2469.89,2022-2-04T14:43:26Z
2022-02-04T12:44:57Z,42.805,6.029,13.3001,4.60028,2469.876,2022-2-04T14:46:29Z
2022-02-04T12:48:00Z,42.805,6.029,13.3000,4.60028,2469.876,2022-2-04T14:49:32Z
2022-02-04T12:51:03Z,42.805,6.029,13.2998,4.60029,2469.853,2022-2-04T14:52:36Z
2022-02-04T12:54:06Z,42.805,6.029,13.3000,4.60029,2469.876,2022-2-04T14:55:39Z
2022-02-04T12:57:09Z,42.805,6.029,13.3001,4.60029,2469.9,2022-2-04T14:58:42Z
2022-02-04T13:00:12Z,42.805,6.029,13.2999,4.60026,2469.867,2022-2-04T15:01:45Z
2022-02-04T13:03:15Z,42.805,6.029,13.2998,4.60031,2469.853,2022-2-04T15:04:48Z
2022-02-04T13:06:18Z,42.805,6.029,13.2997,4.60025,2469.876,2022-2-04T15:07:51Z
2022-02-04T13:09:22Z,42.805,6.029,13.2999,4.60028,2469.853,2022-2-04T15:10:54Z
2022-02-04T13:12:25Z,42.805,6.029,13.2998,4.60028,2469.853,2022-2-04T15:13:57Z
2022-02-04T13:15:28Z,42.805,6.029,13.3002,4.60033,2469.83,2022-2-04T15:17:00Z
2022-02-04T13:18:31Z,42.805,6.029,13.3000,4.60029,2469.83,2022-2-04T15:20:04Z
2022-02-04T13:21:34Z,42.805,6.029,13.2998,4.60029,2469.853,2022-2-04T15:23:07Z
2022-02-04T13:24:37Z,42.805,6.029,13.2997,4.60029,2469.853,2022-2-04T15:26:10Z
2022-02-04T13:27:40Z,42.805,6.029,13.2999,4.60028,2469.83,2022-2-04T15:29:13Z
2022-02-04T13:30:43Z,42.805,6.029,13.2999,4.60026,2469.844,2022-2-04T15:32:16Z
2022-02-04T13:33:47Z,42.805,6.029,13.3004,4.60033,2469.83,2022-2-04T15:35:19Z
2022-02-04T13:36:50Z,42.805,6.029,13.2996,4.60028,2469.821,2022-2-04T15:38:22Z
2022-02-04T13:39:53Z,42.805,6.029,13.2998,4.60029,2469.844,2022-2-04T15:41:25Z
2022-02-04T13:42:56Z,42.805,6.029,13.3000,4.60028,2469.806,2022-2-04T15:44:29Z
2022-02-04T13:45:59Z,42.805,6.029,13.2999,4.60033,2469.783,2022-2-04T15:47:32Z
2022-02-04T13:49:02Z,42.805,6.029,13.2997,4.60026,2469.844,2022-2-04T15:50:35Z
2022-02-04T13:52:05Z,42.805,6.029,13.3000,4.60031,2469.783,2022-2-04T15:53:38Z
2022-02-04T13:55:08Z,42.805,6.029,13.3001,4.60029,2469.783,2022-2-04T15:56:41Z
2022-02-04T13:58:12Z,42.805,6.029,13.2998,4.60028,2469.783,2022-2-04T15:59:44Z
2022-02-04T14:01:15Z,42.805,6.029,13.2997,4.60026,2469.773,2022-2-04T16:02:47Z
2022-02-04T14:04:18Z,42.805,6.029,13.3000,4.60028,2469.806,2022-2-04T16:05:50Z
2022-02-04T14:07:21Z,42.805,6.029,13.3000,4.60033,2469.783,2022-2-04T16:08:54Z
2022-02-04T14:10:24Z,42.805,6.029,13.2993,4.60027,2469.797,2022-2-04T16:11:57Z
2022-02-04T14:13:27Z,42.805,6.029,13.2998,4.60028,2469.76,2022-2-04T16:15:00Z
2022-02-04T14:16:30Z,42.805,6.029,13.2996,4.60026,2469.769,2022-2-04T16:18:03Z
2022-02-04T14:19:33Z,42.805,6.029,13.2999,4.60028,2469.783,2022-2-04T16:21:06Z
2022-02-04T14:22:37Z,42.805,6.029,13.2999,4.60029,2469.76,2022-2-04T16:24:09Z
2022-02-04T14:25:40Z,42.805,6.029,13.2998,4.60031,2469.76,2022-2-04T16:27:12Z
2022-02-04T14:28:43Z,42.805,6.029,13.3002,4.60029,2469.713,2022-2-04T16:30:15Z
2022-02-04T14:31:46Z,42.805,6.029,13.2996,4.60028,2469.713,2022-2-04T16:33:19Z
2022-02-04T14:34:49Z,42.805,6.029,13.3001,4.60026,2469.727,2022-2-04T16:36:22Z
2022-02-04T14:37:52Z,42.805,6.029,13.3002,4.60027,2469.737,2022-2-04T16:39:25Z
2022-02-04T14:40:55Z,42.805,6.029,13.2996,4.60031,2469.704,2022-2-04T16:42:28Z
2022-02-04T14:43:58Z,42.805,6.029,13.3003,4.60029,2469.727,2022-2-04T16:45:31Z
2022-02-04T14:47:02Z,42.805,6.029,13.3003,4.60029,2469.75,2022-2-04T16:48:34Z
2022-02-04T14:50:05Z,42.805,6.029,13.3000,4.60029,2469.69,2022-2-04T16:51:37Z
2022-02-04T14:53:08Z,42.805,6.029,13.3002,4.60032,2469.713,2022-2-04T16:54:40Z
2022-02-04T14:56:11Z,42.805,6.029,13.2998,4.60026,2469.704,2022-2-04T16:57:44Z
2022-02-04T14:59:14Z,42.805,6.029,13.3000,4.60033,2469.69,2022-2-04T17:00:47Z
2022-02-04T15:02:17Z,42.805,6.029,13.2998,4.60029,2469.69,2022-2-04T17:03:50Z
2022-02-04T15:05:20Z,42.805,6.029,13.3003,4.60030,2469.69,2022-2-04T17:06:53Z
2022-02-04T15:08:23Z,42.805,6.029,13.2999,4.60026,2469.68,2022-2-04T17:09:56Z
2022-02-04T15:11:26Z,42.805,6.029,13.2999,4.60028,2469.68,2022-2-04T17:12:59Z
2022-02-04T15:14:30Z,42.805,6.029,13.2996,4.60028,2469.727,2022-2-04T17:16:02Z